Weather History for PHKO - November, 2012

Change the Weather History Date:

Monday, November 5, 2012

  Actual Average (PHTO) Record (PHTO)
Temperature  
Mean Temperature 78 °F 75 °F  
Max Temperature 84 °F 82 °F 86 °F (2006)
Min Temperature 72 °F 68 °F 63 °F (1979)
Degree Days  
Heating Degree Days 0 0  
Month to date heating degree days 0  
Since 1 July heating degree days 0  
Cooling Degree Days 13 10  
Month to date cooling degree days 50  
Year to date cooling degree days 2785  
Growing Degree Days 28 (Base 50)    
Moisture  
Dew Point 65 °F    
Average Humidity 61    
Maximum Humidity 71    
Minimum Humidity 51    
Precipitation  
Precipitation 0.00 in 0.54 in 3.91 in (1964)
Month to date precipitation 2.54  
Year to date precipitation 102.19  
Snow  
Snow 0.00 in - - ()
Month to date snowfall  
Since 1 July snowfall  
Since 1 September snowfall  
Snow Depth -    
Sea Level Pressure  
Sea Level Pressure 29.91 in    
Wind  
Wind Speed 5 mph (SSE)    
Max Wind Speed 12 mph    
Max Gust Speed -    
Visibility 10 miles    
Events      
T = Trace of Precipitation, MM = Missing Value Source: NWS Daily Summary

Daily Weather History Graph

Daily Weather History Graph

Search for Another Location

Airport or City:

Trip Planner

Search our weather history database for the weather conditions in past years. The results will help you decide how hot, cold, wet, or windy it might be!

Date:

Astronomy

Nov. 05, 2012 Rise Set
Actual Time 6:27 AM HST 5:47 PM HST
Civil Twilight 6:04 AM HST 6:10 PM HST
Nautical Twilight 5:38 AM HST 6:36 PM HST
Astronomical Twilight 5:12 AM HST 7:02 PM HST
Moon 11:33 PM HST (11/5) 11:53 AM HST (11/5)
Length of Visible Light 12h 05m
Length of Day
11h 20m
Waning Gibbous, 61% of the Moon is Illuminated
Nov 5
Waning Gibbous
Nov 6
Last Quarter
Nov 13
New
Nov 20
First Quarter
Nov 28
Full

Hourly Weather History & Observations

Time (HST) Temp. Heat Index Dew Point Humidity Pressure Visibility Wind Dir Wind Speed Gust Speed Precip Events Conditions
12:53 AM 75.9 °F - 64.0 °F 67% 29.94 in 10.0 mi East 4.6 mph - N/A   Partly Cloudy
1:53 AM 77.0 °F - 62.1 °F 60% 29.94 in 10.0 mi Calm Calm - N/A   Overcast
2:53 AM 75.9 °F - 61.0 °F 60% 29.92 in 10.0 mi NE 4.6 mph - N/A   Partly Cloudy
3:53 AM 73.9 °F - 60.1 °F 62% 29.91 in 10.0 mi NNE 3.5 mph - N/A   Clear
4:53 AM 73.9 °F - 62.1 °F 66% 29.91 in 10.0 mi ESE 3.5 mph - N/A   Clear
5:53 AM 72.0 °F - 62.1 °F 71% 29.92 in 10.0 mi ENE 3.5 mph - N/A   Clear
6:53 AM 72.0 °F - 61.0 °F 68% 29.93 in 10.0 mi ESE 8.1 mph - N/A   Clear
7:53 AM 78.1 °F - 62.1 °F 58% 29.94 in 10.0 mi SE 4.6 mph - N/A   Clear
8:53 AM 81.0 °F 82.5 °F 64.0 °F 56% 29.96 in 10.0 mi West 3.5 mph - N/A   Clear
9:53 AM 81.0 °F 82.7 °F 64.9 °F 58% 29.96 in 10.0 mi WSW 6.9 mph - N/A   Clear
10:53 AM 82.9 °F 84.6 °F 64.9 °F 54% 29.93 in 10.0 mi WSW 8.1 mph - N/A   Clear
11:53 AM 82.9 °F 85.0 °F 66.0 °F 56% 29.90 in 10.0 mi SW 9.2 mph - N/A   Clear
12:53 PM 84.0 °F 85.8 °F 64.9 °F 53% 29.88 in 10.0 mi WSW 6.9 mph - N/A   Clear
1:53 PM 84.0 °F 85.4 °F 64.0 °F 51% 29.86 in 10.0 mi WSW 6.9 mph - N/A   Clear
2:53 PM 82.9 °F 85.8 °F 68.0 °F 60% 29.84 in 10.0 mi Variable 6.9 mph - N/A   Clear
3:53 PM 84.0 °F 87.0 °F 68.0 °F 58% 29.85 in 10.0 mi Variable 6.9 mph - N/A   Clear
4:53 PM 82.9 °F 85.0 °F 66.0 °F 56% 29.86 in 10.0 mi South 11.5 mph - N/A   Clear
5:53 PM 81.0 °F 82.7 °F 64.9 °F 58% 29.87 in 10.0 mi SSE 11.5 mph - N/A   Clear
6:53 PM 80.1 °F 82.1 °F 66.0 °F 62% 29.89 in 10.0 mi SSE 11.5 mph - N/A   Clear
7:53 PM 79.0 °F - 66.9 °F 66% 29.91 in 10.0 mi ESE 5.8 mph - N/A   Clear
8:53 PM 79.0 °F - 68.0 °F 69% 29.92 in 10.0 mi SE 8.1 mph - N/A   Mostly Cloudy
9:53 PM 79.0 °F - 66.9 °F 66% 29.92 in 10.0 mi ESE 5.8 mph - N/A   Overcast
10:53 PM 79.0 °F - 66.9 °F 66% 29.91 in 10.0 mi South 3.5 mph - N/A   Overcast
11:53 PM 79.0 °F - 68.0 °F 69% 29.90 in 10.0 mi SSE 6.9 mph - N/A   Overcast